EW8805 Carrion De Calatrava ES current weather conditions

sailwx.info

Wind from 270

Air temperature 8.3° C
Dewpoint 4.9° C

Last reported at 2020-Jan-17 19:00 UTC.
Time now 2020-Jan-17 19:40 UTC

Location: N 39°01' W 003°49'.
View on Google Maps.

See reports from other nearby stations

  
Tides and Currents Weather Stations Pressure Air Temp Water Temp Dewpoint Dewpoint Depression Visibility Wind Speed Wind Dir Waves Ship Positions
date/time (UTC)wind fromknots sea level pressurealtimeterstation pressurevisibilityair tempwater tempwave heightnotes
2020-Jan-17 19:00 270 8.3
2020-Jan-17 18:55 280 8.3
2020-Jan-17 18:50 249 8.9
2020-Jan-17 18:45 235 8.9
2020-Jan-17 18:35 251 0 gusting 1 8.9
2020-Jan-17 18:30 264 0 gusting 0 8.9
2020-Jan-17 18:25 270 8.9
2020-Jan-17 18:15 270 9.4
2020-Jan-17 18:10 249 0 gusting 2 9.4
2020-Jan-17 18:05 239 0 gusting 2 9.4
2020-Jan-17 18:00 246 2 gusting 2 10.0
2020-Jan-17 17:55 255 0 gusting 3 10.0
2020-Jan-17 17:50 255 1 gusting 4 10.0
2020-Jan-17 17:40 261 1 gusting 3 10.0
2020-Jan-17 17:35 242 2 gusting 4 10.0
2020-Jan-17 17:30 255 3 gusting 5 10.6
2020-Jan-17 17:20 259 2 gusting 3 11.1
2020-Jan-17 17:15 264 1 gusting 3 11.1
2020-Jan-17 17:10 285 2 gusting 4 11.1
2020-Jan-17 17:05 242 1 gusting 5 11.7
2020-Jan-17 17:00 246 2 gusting 6 11.7
2020-Jan-17 16:55 252 3 gusting 6 11.7
2020-Jan-17 16:50 266 3 gusting 6 11.7
2020-Jan-17 16:45 243 4 gusting 9 12.2
2020-Jan-17 16:35 245 7 gusting 11 12.8
2020-Jan-17 16:30 245 7 gusting 11 12.8
2020-Jan-17 16:25 257 8 gusting 10 12.8
2020-Jan-17 16:20 260 7 gusting 11 12.8
2020-Jan-17 16:15 251 7 gusting 11 12.8
2020-Jan-17 16:10 240 5 gusting 10 12.8
2020-Jan-17 16:06 233 6 gusting 11 12.8
2020-Jan-17 16:00 249 6 gusting 11 12.8
2020-Jan-17 15:55 257 7 gusting 13 12.8
2020-Jan-17 15:50 264 7 gusting 12 12.8
2020-Jan-17 15:45 264 6 gusting 11 13.3
2020-Jan-17 15:40 263 6 gusting 9 12.8
2020-Jan-17 15:35 295 6 gusting 9 12.8
2020-Jan-17 15:30 270 6 gusting 10 12.8
2020-Jan-17 15:20 276 6 gusting 9 12.8
2020-Jan-17 15:15 260 5 gusting 9 12.8
2020-Jan-17 15:10 252 5 gusting 9 12.8
2020-Jan-17 15:05 249 4 gusting 8 12.8
2020-Jan-17 15:00 257 6 gusting 9 12.8
2020-Jan-17 14:55 260 6 gusting 10 12.8
2020-Jan-17 14:50 263 6 gusting 9 12.8
2020-Jan-17 14:45 263 6 gusting 9 12.2
2020-Jan-17 14:40 270 6 gusting 9 12.2
2020-Jan-17 14:35 261 6 gusting 10 12.2
2020-Jan-17 14:30 257 6 gusting 11 12.2
2020-Jan-17 14:25 288 6 gusting 11 12.8
2020-Jan-17 14:20 266 6 gusting 10 12.8
2020-Jan-17 14:15 255 7 gusting 10 12.8
2020-Jan-17 14:10 262 6 gusting 13 12.8
2020-Jan-17 14:05 276 6 gusting 12 12.8
2020-Jan-17 14:00 270 9 gusting 13 12.8
2020-Jan-17 13:55 267 7 gusting 13 12.8
2020-Jan-17 13:50 284 8 gusting 13 12.8
2020-Jan-17 13:45 252 9 gusting 13 12.8
2020-Jan-17 13:40 267 7 gusting 11 12.8
2020-Jan-17 13:35 231 6 gusting 11 12.8
2020-Jan-17 13:30 242 7 gusting 11 12.8
2020-Jan-17 13:25 245 6 gusting 13 12.8
2020-Jan-17 13:20 261 8 gusting 12 12.8
2020-Jan-17 13:10 283 6 gusting 11 12.2
2020-Jan-17 13:05 256 7 gusting 11 12.2
2020-Jan-17 12:55 267 9 gusting 13 12.8
2020-Jan-17 12:50 255 6 gusting 13 12.8
2020-Jan-17 12:45 245 8 gusting 13 12.8
2020-Jan-17 12:40 255 6 gusting 10 12.2
2020-Jan-17 12:35 240 6 gusting 10 12.2
2020-Jan-17 12:30 264 6 gusting 12 12.2
2020-Jan-17 12:25 263 6 gusting 13 12.2
2020-Jan-17 12:20 240 7 gusting 13 12.2
2020-Jan-17 12:15 253 6 gusting 12 12.2
2020-Jan-17 12:05 246 7 gusting 13 12.2
2020-Jan-17 12:00 269 6 gusting 12 12.2
2020-Jan-17 11:55 255 6 gusting 13 12.2
2020-Jan-17 11:50 262 6 gusting 13 12.2
2020-Jan-17 11:45 260 7 gusting 13 12.2
2020-Jan-17 11:35 241 7 gusting 13 12.2
2020-Jan-17 11:30 257 8 gusting 13 11.7
2020-Jan-17 11:25 248 8 gusting 15 11.7
2020-Jan-17 11:20 253 9 gusting 15 11.7
2020-Jan-17 11:15 262 10 gusting 15 11.7
2020-Jan-17 11:10 266 12 gusting 15 11.7
2020-Jan-17 11:05 272 7 gusting 13 11.7
2020-Jan-17 11:00 248 7 gusting 13 11.1
2020-Jan-17 10:55 255 10 gusting 13 11.1
2020-Jan-17 10:50 262 8 gusting 10 10.6
2020-Jan-17 10:45 260 6 gusting 9 10.6
2020-Jan-17 10:40 258 6 gusting 11 10.6
2020-Jan-17 10:30 264 5 gusting 9 10.6
2020-Jan-17 10:25 264 6 gusting 10 10.6
2020-Jan-17 10:20 257 6 gusting 10 10.6
2020-Jan-17 10:15 257 6 gusting 9 10.6
2020-Jan-17 10:10 262 6 gusting 7 10.6
2020-Jan-17 10:05 276 5 gusting 10 10.6
2020-Jan-17 10:00 249 5 gusting 10 10.6
2020-Jan-17 09:55 255 6 gusting 12 10.6
2020-Jan-17 09:50 231 8 gusting 12 10.6
2020-Jan-17 09:40 247 6 gusting 10 10.0
2020-Jan-17 09:35 255 6 gusting 11 10.0
2020-Jan-17 09:30 280 6 gusting 9 10.0
2020-Jan-17 09:25 235 6 gusting 9 9.4
2020-Jan-17 09:20 241 3 gusting 6 9.4
2020-Jan-17 09:15 239 4 gusting 6 8.9
2020-Jan-17 09:10 251 2 gusting 5 8.9
2020-Jan-17 09:05 221 3 gusting 5 8.3
2020-Jan-17 09:00 235 3 gusting 5 8.3
2020-Jan-17 08:55 252 3 gusting 4 7.8
2020-Jan-17 08:45 248 0 gusting 3 7.8
2020-Jan-17 08:40 257 2 gusting 3 7.2
2020-Jan-17 08:35 263 0 gusting 2 7.2
2020-Jan-17 08:30 241 1 gusting 2 7.2
2020-Jan-17 08:25 257 0 gusting 1 7.8
2020-Jan-17 08:20 231 0 gusting 1 7.8
2020-Jan-17 08:15 249 7.8
2020-Jan-17 08:10 233 7.8
2020-Jan-17 08:05 221 0 gusting 1 7.8
2020-Jan-17 08:00 221 7.8
2020-Jan-17 07:55 231 0 gusting 3 7.8
2020-Jan-17 07:50 233 1 gusting 3 7.8
2020-Jan-17 07:40 240 1 gusting 3 7.8
2020-Jan-17 07:35 237 1 gusting 3 7.8
2020-Jan-17 07:30 249 2 gusting 3 7.8
2020-Jan-17 07:25 231 1 gusting 2 7.8
2020-Jan-17 07:20 235 0 gusting 2 7.8
2020-Jan-17 07:15 231 1 gusting 2 7.8
2020-Jan-17 07:10 233 1 gusting 2 7.8
2020-Jan-17 07:05 218 1 gusting 3 7.8
2020-Jan-17 06:55 253 1 gusting 2 7.8
2020-Jan-17 06:50 257 1 gusting 2 7.8
2020-Jan-17 06:45 239 0 gusting 2 7.8
2020-Jan-17 06:40 261 1 gusting 2 7.8
2020-Jan-17 06:35 266 1 gusting 2 7.8
2020-Jan-17 06:30 251 1 gusting 1 7.8
2020-Jan-17 06:25 252 0 gusting 1 7.8
2020-Jan-17 06:20 243 0 gusting 0 7.8
2020-Jan-17 06:10 266 7.8
2020-Jan-17 06:05 276 1 gusting 2 7.8
2020-Jan-17 06:00 281 0 gusting 2 8.3
2020-Jan-17 05:55 243 0 gusting 1 8.3
2020-Jan-17 05:50 256 8.3
2020-Jan-17 05:45 242 8.3
2020-Jan-17 05:40 224 8.3
2020-Jan-17 05:35 229 8.3
2020-Jan-17 05:30 207 8.3
2020-Jan-17 05:25 203 8.3
2020-Jan-17 05:20 226 0 gusting 2 8.3
2020-Jan-17 05:15 235 0 gusting 2 8.3
2020-Jan-17 05:10 257 0 gusting 2 8.3
2020-Jan-17 05:05 271 0 gusting 2 8.3
2020-Jan-17 05:00 228 0 gusting 1 8.3
2020-Jan-17 04:55 246 8.3
2020-Jan-17 04:50 242 8.3
2020-Jan-17 04:45 222 0 gusting 2 8.9
2020-Jan-17 04:40 252 0 gusting 3 8.9
2020-Jan-17 04:35 235 0 gusting 3 8.9
2020-Jan-17 04:30 266 0 gusting 3 8.9
2020-Jan-17 04:25 262 1 gusting 4 8.3
2020-Jan-17 04:20 260 0 gusting 4 8.3
2020-Jan-17 04:15 243 8.3
2020-Jan-17 04:10 246 0 gusting 1 8.3
2020-Jan-17 04:05 233 0 gusting 1 8.9
2020-Jan-17 03:55 212 8.9
2020-Jan-17 03:50 210 8.9
2020-Jan-17 03:45 243 2 gusting 3 8.9
2020-Jan-17 03:35 213 0 gusting 2 8.9
2020-Jan-17 03:30 218 8.9
2020-Jan-17 03:25 228 8.3
2020-Jan-17 03:20 188 8.3
2020-Jan-17 03:15 217 8.3
2020-Jan-17 03:10 207 8.3
2020-Jan-17 03:05 207 8.3
2020-Jan-17 03:00 206 8.3
2020-Jan-17 02:55 207 8.3
2020-Jan-17 02:50 206 8.3
2020-Jan-17 02:40 207 8.3
2020-Jan-17 02:35 206 8.3
2020-Jan-17 02:30 207 8.3
2020-Jan-17 02:25 196 8.3
2020-Jan-17 02:20 225 8.3
2020-Jan-17 02:10 215 8.3
2020-Jan-17 02:05 229 0 gusting 1 8.3
2020-Jan-17 02:00 212 0 gusting 1 7.8
2020-Jan-17 01:55 239 7.8
2020-Jan-17 01:50 241 0 gusting 0 7.8
2020-Jan-17 01:45 226 7.2
2020-Jan-17 01:40 239 7.2
2020-Jan-17 01:35 260 7.2
2020-Jan-17 01:30 242 7.2
2020-Jan-17 01:25 242 7.2
2020-Jan-17 01:20 259 0 gusting 2 7.8
2020-Jan-17 01:15 249 0 gusting 2 7.8
2020-Jan-17 01:10 233 0 gusting 2 7.8
2020-Jan-17 01:00 217 7.2
2020-Jan-17 00:55 167 0 gusting 2 6.7
2020-Jan-17 00:50 201 0 gusting 1 6.7
2020-Jan-17 00:40 219 6.7
2020-Jan-17 00:35 172 7.2
2020-Jan-17 00:30 217 7.2
2020-Jan-17 00:25 229 0 gusting 3 7.2
2020-Jan-17 00:20 226 0 gusting 5 7.2
2020-Jan-17 00:10 231 2 gusting 5 7.2
2020-Jan-17 00:05 219 3 gusting 6 7.2
2020-Jan-17 00:00 246 3 gusting 6 7.2
2020-Jan-16 23:55 232 2 gusting 5 7.2
2020-Jan-16 23:45 243 3 gusting 5 7.2
2020-Jan-16 23:40 235 3 gusting 6 7.2
2020-Jan-16 23:35 242 3 gusting 5 7.2
2020-Jan-16 23:30 214 3 gusting 5 7.2
2020-Jan-16 23:25 225 0 gusting 2 6.7
2020-Jan-16 23:15 149 1 gusting 4 7.2
2020-Jan-16 23:10 232 2 gusting 5 7.2
2020-Jan-16 23:00 238 1 gusting 3 6.7
2020-Jan-16 22:55 219 1 gusting 4 6.7
2020-Jan-16 22:50 193 2 gusting 4 6.7
2020-Jan-16 22:40 221 2 gusting 4 6.7
2020-Jan-16 22:35 221 1 gusting 3 6.1
2020-Jan-16 22:30 222 0 gusting 2 6.1
2020-Jan-16 22:25 225 6.1
2020-Jan-16 22:20 246 6.7
2020-Jan-16 22:15 271 7.2
2020-Jan-16 22:10 156 7.2
2020-Jan-16 22:05 205 7.2
2020-Jan-16 21:55 211 0 gusting 3 7.8
2020-Jan-16 21:50 249 0 gusting 4 7.8
2020-Jan-16 21:45 214 0 gusting 3 7.8
2020-Jan-16 21:40 160 0 gusting 4 7.8
2020-Jan-16 21:30 238 7.8
2020-Jan-16 21:25 242 1 gusting 4 7.8
2020-Jan-16 21:20 219 0 gusting 4 7.8
2020-Jan-16 21:10 246 0 gusting 3 8.3
2020-Jan-16 21:05 218 0 gusting 3 8.3
2020-Jan-16 20:55 224 1 gusting 5 8.9
2020-Jan-16 20:50 232 1 gusting 5 8.9
2020-Jan-16 20:40 239 0 gusting 3 8.9
2020-Jan-16 20:30 221 0 gusting 3 9.4
2020-Jan-16 20:25 198 0 gusting 4 9.4
2020-Jan-16 20:15 210 0 gusting 3 9.4
2020-Jan-16 20:10 210 0 gusting 5 9.4
2020-Jan-16 20:05 212 2 gusting 5 9.4
2020-Jan-16 19:55 270 0 gusting 5 9.4
2020-Jan-16 19:50 165 1 gusting 5 9.4
2020-Jan-16 19:45 165 0 gusting 4 9.4
2020-Jan-16 19:40 228 0 gusting 2 9.4
2020-Jan-16 19:35 212 0 gusting 1 9.4
2020-Jan-16 19:30 184 0 gusting 2 9.4
2020-Jan-16 19:20 203 0 gusting 3 9.4
2020-Jan-16 19:15 231 0 gusting 4 9.4
2020-Jan-16 19:10 152 0 gusting 4 9.4
2020-Jan-16 19:05 154 0 gusting 5 10.0
2020-Jan-16 19:00 228 1 gusting 5 10.0
2020-Jan-16 18:55 237 1 gusting 5 10.0
2020-Jan-16 18:50 134 0 gusting 4 10.6
2020-Jan-16 18:40 257 2 gusting 6 10.6
2020-Jan-16 18:35 200 1 gusting 6 10.6
2020-Jan-16 18:30 186 1 gusting 6 11.1
2020-Jan-16 18:25 210 2 gusting 6 11.1
2020-Jan-16 18:20 211 1 gusting 5 11.1
2020-Jan-16 18:15 219 0 gusting 3 11.1
2020-Jan-16 18:10 240 0 gusting 2 11.1
2020-Jan-16 18:05 217 0 gusting 2 11.7
2020-Jan-16 18:00 148 0 gusting 5 12.2
2020-Jan-16 17:55 218 3 gusting 5 12.2
2020-Jan-16 17:45 235 2 gusting 6 12.2
2020-Jan-16 17:40 235 3 gusting 6 12.2
2020-Jan-16 17:35 218 2 gusting 5 12.2
2020-Jan-16 17:30 246 2 gusting 4 12.8
2020-Jan-16 17:25 235 1 gusting 5 12.8
2020-Jan-16 17:20 207 2 gusting 6 13.3
2020-Jan-16 17:15 221 3 gusting 6 13.3
2020-Jan-16 17:10 229 2 gusting 5 13.3
2020-Jan-16 17:05 233 2 gusting 4 13.9
2020-Jan-16 17:00 245 1 gusting 4 13.9
2020-Jan-16 16:55 245 1 gusting 5 13.9
2020-Jan-16 16:50 239 2 gusting 5 14.4
2020-Jan-16 16:45 249 1 gusting 5 14.4
2020-Jan-16 16:40 245 3 gusting 5 14.4
2020-Jan-16 16:30 249 2 gusting 6 15.0
2020-Jan-16 16:25 252 3 gusting 7 15.0
2020-Jan-16 16:20 243 2 gusting 7 15.6
2020-Jan-16 16:15 262 4 gusting 8 15.6
2020-Jan-16 16:10 235 1 gusting 8 15.6
2020-Jan-16 16:05 232 5 gusting 8 15.6
2020-Jan-16 16:00 221 3 gusting 8 15.6
2020-Jan-16 15:55 233 5 gusting 10 15.6
2020-Jan-16 15:50 229 6 gusting 10 15.6
2020-Jan-16 15:45 248 5 gusting 9 15.6
2020-Jan-16 15:40 211 2 gusting 6 15.6
2020-Jan-16 15:35 249 4 gusting 8 15.6
2020-Jan-16 15:30 226 4 gusting 12 15.6
2020-Jan-16 15:25 226 6 gusting 13 15.6
2020-Jan-16 15:20 255 6 gusting 12 15.6
2020-Jan-16 15:15 246 5 gusting 10 15.6
2020-Jan-16 15:10 253 5 gusting 9 15.6
2020-Jan-16 15:00 256 6 gusting 12 15.6
2020-Jan-16 14:55 224 4 gusting 11 15.6
2020-Jan-16 14:50 241 8 gusting 11 15.6
2020-Jan-16 14:45 239 5 gusting 10 15.6
2020-Jan-16 14:40 214 2 gusting 6 16.1
2020-Jan-16 14:35 246 2 gusting 6 16.1
2020-Jan-16 14:25 208 1 gusting 6 15.6
2020-Jan-16 14:20 240 2 gusting 8 15.6
2020-Jan-16 14:10 228 6 gusting 11 15.6
2020-Jan-16 14:05 163 3 gusting 8 15.6
2020-Jan-16 14:00 208 1 gusting 7 15.6
2020-Jan-16 13:55 240 4 gusting 8 15.0
2020-Jan-16 13:50 248 4 gusting 12 15.0
2020-Jan-16 13:45 245 6 gusting 12 15.0
2020-Jan-16 13:40 246 6 gusting 9 15.0
2020-Jan-16 13:35 242 2 gusting 6 15.0
2020-Jan-16 13:30 218 1 gusting 6 15.0
2020-Jan-16 13:20 231 3 gusting 6 15.0
2020-Jan-16 13:15 231 1 gusting 7 15.0
2020-Jan-16 13:10 245 3 gusting 7 14.4
2020-Jan-16 13:05 222 1 gusting 7 14.4
2020-Jan-16 13:00 228 3 gusting 6 14.4
2020-Jan-16 12:55 212 2 gusting 6 13.9
2020-Jan-16 12:51 239 2 gusting 6 13.9
2020-Jan-16 12:45 242 2 gusting 8 13.9
2020-Jan-16 12:40 283 3 gusting 8 13.9
2020-Jan-16 12:35 251 3 gusting 5 13.9
2020-Jan-16 12:30 245 0 gusting 5 13.9
2020-Jan-16 12:20 231 6 gusting 7 13.3
2020-Jan-16 12:15 246 1 gusting 3 13.3
2020-Jan-16 12:10 241 0 gusting 1 13.3
2020-Jan-16 12:05 249 13.3
2020-Jan-16 12:00 239 12.8
2020-Jan-16 11:55 219 0 gusting 3 12.8
2020-Jan-16 11:50 260 0 gusting 2 12.8
2020-Jan-16 11:40 222 12.2
2020-Jan-16 11:35 200 12.2
2020-Jan-16 11:30 101 11.7
2020-Jan-16 11:25 111 11.7
2020-Jan-16 11:20 106 11.1
2020-Jan-16 11:15 072 11.1
2020-Jan-16 11:10 099 11.1
2020-Jan-16 11:05 091 11.1
2020-Jan-16 11:00 089 10.6
2020-Jan-16 10:55 075 10.6
2020-Jan-16 10:50 079 10.6
2020-Jan-16 10:45 079 10.6
2020-Jan-16 10:40 077 10.6
2020-Jan-16 10:35 062 10.6
2020-Jan-16 10:25 283 11.1
2020-Jan-16 10:15 283 10.0
2020-Jan-16 10:05 282 10.6
2020-Jan-16 10:00 282 10.6
2020-Jan-16 09:55 110 11.1
2020-Jan-16 09:50 109 10.6
2020-Jan-16 09:45 109 10.0
2020-Jan-16 09:40 067 10.0
2020-Jan-16 09:35 065 9.4
2020-Jan-16 09:25 063 8.3
2020-Jan-16 09:20 061 7.8
2020-Jan-16 09:15 061 7.8
2020-Jan-16 09:10 061 7.2
2020-Jan-16 09:05 061 7.2
2020-Jan-16 09:00 061 6.7
2020-Jan-16 08:55 061 6.1
2020-Jan-16 08:50 061 5.6
2020-Jan-16 08:45 061 5.0
2020-Jan-16 08:35 308 5.6
2020-Jan-16 08:30 314 5.0
2020-Jan-16 08:25 314 5.0
2020-Jan-16 08:20 314 5.0
2020-Jan-16 08:15 313 4.4
2020-Jan-16 08:05 314 3.9
2020-Jan-16 08:00 314 3.9
2020-Jan-16 07:55 313 3.9
2020-Jan-16 07:50 314 3.9
2020-Jan-16 07:45 314 3.9
2020-Jan-16 07:40 313 3.3
2020-Jan-16 07:35 314 3.3
2020-Jan-16 07:25 314 3.9
2020-Jan-16 07:20 314 3.9
2020-Jan-16 07:10 313 3.9
2020-Jan-16 07:00 039 4.4
2020-Jan-16 06:55 039 4.4
2020-Jan-16 06:50 037 4.4
2020-Jan-16 06:45 319 4.4
2020-Jan-16 06:40 331 3.9
2020-Jan-16 06:35 006 3.9
2020-Jan-16 06:30 291 3.9
2020-Jan-16 06:25 301 4.4
2020-Jan-16 06:20 218 5.6
2020-Jan-16 06:15 201 5.6
2020-Jan-16 06:10 201 6.1
2020-Jan-16 06:05 201 6.7
2020-Jan-16 06:00 201 6.7
2020-Jan-16 05:55 135 6.7
2020-Jan-16 05:50 123 6.7
2020-Jan-16 05:45 169 6.1
2020-Jan-16 05:40 167 6.7
2020-Jan-16 05:35 149 6.1
2020-Jan-16 05:30 228 6.1
2020-Jan-16 05:25 228 6.1
2020-Jan-16 05:20 228 6.1
2020-Jan-16 05:15 225 6.7
2020-Jan-16 05:10 162 6.7
2020-Jan-16 05:05 162 6.7
2020-Jan-16 05:00 153 6.7
2020-Jan-16 04:55 063 6.1
2020-Jan-16 04:50 063 6.1
2020-Jan-16 04:45 062 6.1
2020-Jan-16 04:40 062 6.1
2020-Jan-16 04:35 063 6.1
2020-Jan-16 04:30 156 6.7
2020-Jan-16 04:25 156 6.7
2020-Jan-16 04:20 156 7.2
2020-Jan-16 04:15 205 7.2
2020-Jan-16 04:10 205 7.2
2020-Jan-16 04:00 205 7.2
2020-Jan-16 03:55 204 7.2
2020-Jan-16 03:50 204 7.2
2020-Jan-16 03:45 196 7.2
2020-Jan-16 03:40 204 7.2
2020-Jan-16 03:35 194 7.2
2020-Jan-16 03:30 145 7.2
2020-Jan-16 03:25 224 7.2
2020-Jan-16 03:15 224 7.8
2020-Jan-16 03:10 212 7.8
2020-Jan-16 03:00 124 7.8
2020-Jan-16 02:55 105 7.8
2020-Jan-16 02:50 201 7.8
2020-Jan-16 02:40 121 7.8
2020-Jan-16 02:35 150 7.8
2020-Jan-16 02:30 117 7.8
2020-Jan-16 02:25 114 7.8
2020-Jan-16 02:20 141 7.8
2020-Jan-16 02:15 122 0 gusting 1 7.8
2020-Jan-16 02:10 166 7.8
2020-Jan-16 02:05 156 0 gusting 1 7.8
2020-Jan-16 02:00 126 7.8
2020-Jan-16 01:55 111 7.8
2020-Jan-16 01:50 271 7.8
2020-Jan-16 01:45 271 7.8
2020-Jan-16 01:40 271 7.8
2020-Jan-16 01:35 271 7.8
2020-Jan-16 01:30 271 7.8
2020-Jan-16 01:25 271 7.8
2020-Jan-16 01:20 271 7.8
2020-Jan-16 01:15 271 7.8
2020-Jan-16 01:10 271 7.8
2020-Jan-16 01:00 271 7.2
2020-Jan-16 00:55 271 7.2
2020-Jan-16 00:50 271 7.8
2020-Jan-16 00:40 271 7.8
2020-Jan-16 00:35 271 7.8
2020-Jan-16 00:30 271 7.8
2020-Jan-16 00:25 271 7.8
2020-Jan-16 00:20 271 8.3
2020-Jan-16 00:15 271 8.3
2020-Jan-16 00:10 271 8.3
2020-Jan-16 00:05 271 8.3
2020-Jan-16 00:00 270 8.3
2020-Jan-15 23:55 263 8.3
2020-Jan-15 23:50 269 8.3
2020-Jan-15 23:40 269 8.3
2020-Jan-15 23:35 269 8.3
2020-Jan-15 23:30 268 7.8
2020-Jan-15 23:25 269 7.8
2020-Jan-15 23:15 323 7.8
2020-Jan-15 23:10 323 7.8
2020-Jan-15 23:05 323 7.8
2020-Jan-15 22:55 165 8.3
2020-Jan-15 22:50 229 8.3
2020-Jan-15 22:45 229 8.3
2020-Jan-15 22:40 229 8.3
2020-Jan-15 22:30 199 8.3
2020-Jan-15 22:25 191 8.9
2020-Jan-15 22:15 157 8.9
2020-Jan-15 22:10 163 8.9
2020-Jan-15 22:05 166 8.9
2020-Jan-15 21:55 138 8.9
2020-Jan-15 21:50 285 8.9
2020-Jan-15 21:45 285 9.4
2020-Jan-15 21:40 285 9.4
2020-Jan-15 21:35 129 10.0
2020-Jan-15 21:25 142 9.4
2020-Jan-15 21:20 143 9.4
2020-Jan-15 21:15 142 9.4
2020-Jan-15 21:10 142 9.4
2020-Jan-15 21:05 143 8.9
2020-Jan-15 21:00 142 8.9
2020-Jan-15 20:55 142 8.9
2020-Jan-15 20:50 142 8.9
2020-Jan-15 20:45 143 8.9
2020-Jan-15 20:40 142 9.4
2020-Jan-15 20:35 208 9.4
2020-Jan-15 20:30 206 8.9
2020-Jan-15 20:20 004 9.4
2020-Jan-15 20:15 004 8.9
2020-Jan-15 20:10 004 9.4
2020-Jan-15 20:05 005 9.4
2020-Jan-15 20:00 201 10.0
2020-Jan-15 19:55 202 10.0
2020-Jan-15 19:50 201 10.0
2020-Jan-15 19:45 202 10.0
2020-Jan-15 19:40 202 10.0
2020-Jan-15 19:35 201 9.4
2020-Jan-15 19:30 201 9.4
2020-Jan-15 19:25 201 9.4
2020-Jan-15 19:20 201 9.4
2020-Jan-15 19:15 151 9.4
2020-Jan-15 19:10 150 0 gusting 3 10.0
2020-Jan-15 19:05 108 10.0
2020-Jan-15 19:00 214 10.6